GLOBALSTAR M004 DEB, 43356

Orbit data source: Space-Track

GLOBALSTAR M004 DEB, 43356 is space debris in LEO originally from a launch on Sat, 14 Feb 1998 UTC launched from the Air Force Eastern Test Range (AFETR). Debris objects in space refer to the collection of defunct objects orbiting the Earth. Examples of debris include non-operational satellites, rocket bodies, and fragments generated from explosions, collisions, or faulty payload assembly.

Loading next visibility...
Identifier
43356, 1998-008G
Orbit
LEO
Last TLE update
8 hours ago
Origin
Manufacturer
Unknown
Mission
Spacecraft
Bus & Motor
Unknown
Mass
Unknown
Launch date (UTC)
1998-02-14 (27 years ago)
Launch vehicle
Unknown
Launch site
Air Force Eastern Test Range (AFETR)
Object type
Payload
Rocket body
Debris
Shape & HBR
Unknown
Radar Cross Section
Small (<0.1 m²)

Expand to show TLE details & history

TLE from 8 hours ago
0 GLOBALSTAR M004 DEB
1 43356U 98008G   25181.85038647  .00000566  00000-0  30316-2 0  9996
2 43356  51.9019 118.2957 0032267 171.8865 188.2535 12.78071179440358
Epoch: 2025-06-30T20:24Z
TLE epoch observation values (Epoch: 2025-06-30T20:24:33.391Z)
Latitude
-0.00004°
Longitude
-106.99774°
Altitude
1,374.589 km
Speed
7.161 km/s
True Right ascension
07h 53m 10s
True Declination
0° 00' 00"
Sunlit
Object was in daylight at epoch
Visualization orbit readout
Latitude
32.7582°
Longitude
-77.87961°
Altitude
1,367.036 km
Speed
7.172 km/s
Apparent Right ascension
07h 20m 38s
Apparent Declination
0° 42' 36"
Sunlit
Object is in daylight
Visualization observer readout
Local Sidereal Time
15:46:00
Azimuth
295.821° NW
Elevation
-26.521°
Doppler factor
1
Orbital elements
Apogee altitude
1,374.58 km
Perigee altitude
1,324.709 km
Semi-major axis
7,727.782 km
Eccentricity
0.00323
Inclination
51.9019°
RAAN
118.2957°
Arg. of periapsis
171.8865°
True anomaly
Unknown
Mean anomaly
188.2535°
Eccentric anomaly
Unknown
Mean motion
3.19493 °/min
Orbital period
112.68 mins
BSTAR
0.0030316
Loading maneuver chart data...
Loading SW <> Apogee altitude chart data...
Loading historical data...
Loading historical data...
Loading historical data...
Loading historical data...
Loading historical data...
Loading historical data...
Loading historical data...

GLOBALSTAR M004 DEB Visibility forecast

Observer location: undefined°, undefined°

Span
Click to sort rows by Start time (UTC) header in descending order
Start Az.
Max El. time (UTC)
Max El. Az.
Max El.
End time (UTC)
End Az.
15 mins2025-07-01 04:23:36.067Z309.766° NW2025-07-01 04:31:36.067Z32.475° NE40.7°2025-07-01 04:38:36.067Z105.804° ESE
13 mins2025-07-01 06:23:36.067Z295.16° NW2025-07-01 06:29:36.067Z229.108° WSW37.245°2025-07-01 06:36:36.067Z158.938° S
12 mins2025-07-01 20:55:36.067Z178.813° S2025-07-01 21:01:36.067Z123.583° SE27.984°2025-07-01 21:07:36.067Z71.191° E
14 mins2025-07-01 22:52:36.067Z238.371° WSW2025-07-01 22:58:36.067Z286.402° WNW44.237°2025-07-01 23:06:36.067Z51.186° ENE
14 mins2025-07-02 00:51:36.067Z283.217° WNW2025-07-02 00:58:36.067Z351.512° N32.542°2025-07-02 01:05:36.067Z53.703° ENE
13 mins2025-07-02 02:52:36.067Z312.583° NW2025-07-02 02:58:36.067Z16.034° NNE32.694°2025-07-02 03:05:36.067Z79.48° E
|